Theta_e
288 287 286 286 286 287 286 286 285 286 288 288 288 288 293 292 292 291 290 289 289 288 287 291 293 295 296 297 298 299 301 303 303 304 304 312 319 320 322 324 328 330 333 335
286 286 286 288 288 287 286 286 285 287 289 289 288 289 292 293 292 292 291 289 288 288 292 288 290 292 294 295 295 296 298 300 301 303 303 309 321 322 321 322 322 327 328 330
286 286 287 287 286 287 286 287 286 286 288 288 288 290 294 293 292 291 291 290 288 287 286 289 288 289 290 292 294 294 295 298 300 301 303 303 310 324 324 325 325 323 326 329
285 286 287 286 286 287 287 287 287 287 288 289 288 292 291 293 292 291 290 289 288 287 287 287 288 288 288 289 290 292 294 296 298 300 302 303 302 315 322 323 325 323 324 327
285 286 286 286 286 287 288 287 288 288 288 288 291 290 293 292 291 291 290 289 288 287 286 285 286 287 286 288 288 289 292 295 297 300 301 303 304 303 318 322 324 325 323 322
286 286 286 286 287 287 287 287 288 289 289 287 290 289 289 292 291 290 290 289 288 286 286 286 285 287 287 286 288 289 290 294 296 298 301 302 304 305 304 319 321 323 324 322
285 286 286 286 286 286 287 285 286 287 285 288 288 288 289 292 291 290 289 288 287 286 286 285 286 285 287 286 286 288 289 291 293 296 297 300 302 306 309 313 322 322 321 322
284 286 285 286 286 284 287 284 284 284 288 286 287 291 292 290 289 288 288 287 286 286 286 285 285 285 285 285 285 286 288 289 290 291 296 300 301 305 310 312 320 320 321 321
279 284 285 286 286 284 283 283 284 279 284 286 287 287 288 290 288 287 287 287 286 286 285 285 285 285 285 285 285 284 285 288 289 290 294 296 299 302 306 312 317 320 320 320
283 281 285 286 285 286 282 284 282 281 277 280 286 287 288 289 288 287 287 286 286 286 285 285 284 285 285 285 285 286 285 285 286 289 290 292 296 297 299 303 309 312 318 320
276 280 285 285 283 284 283 283 283 283 283 283 285 285 280 287 288 287 286 287 286 286 285 285 285 284 285 285 285 285 286 285 286 288 289 290 293 295 296 298 302 305 309 311
282 279 280 283 283 282 281 280 282 279 280 283 284 283 285 286 287 287 287 287 287 286 286 285 285 285 284 284 284 284 285 285 285 286 287 287 290 293 294 296 298 301 303 306
280 278 278 283 280 281 279 284 285 282 282 282 280 284 284 287 284 285 287 287 287 287 286 286 285 285 284 283 283 284 284 284 285 286 286 287 287 290 292 292 294 297 300 302
286 276 279 284 284 277 278 280 285 279 277 282 283 285 286 285 285 284 287 288 287 286 286 285 285 284 282 281 281 282 282 282 284 285 286 286 286 287 288 290 292 293 295 299
284 279 275 281 283 283 283 282 282 283 283 281 287 285 285 284 282 284 285 287 286 285 286 286 285 284 283 282 281 281 281 281 282 282 284 285 285 286 286 287 289 290 292 294
278 276 273 276 283 283 283 283 282 283 284 283 284 284 285 285 285 284 284 286 286 285 285 286 285 284 283 282 282 281 281 280 280 282 282 282 284 285 286 286 286 287 289 290
278 276 274 277 279 280 279 280 282 282 277 282 283 284 284 284 284 285 286 287 286 285 285 285 285 285 283 282 282 281 281 280 280 280 280 281 280 282 283 285 286 286 286 287
278 278 277 277 274 278 284 279 280 283 283 282 281 283 283 284 285 285 286 286 285 285 285 285 285 284 284 282 282 282 281 280 280 280 280 280 279 280 280 282 282 284 286 285
285 282 275 274 266 280 285 280 278 279 279 282 282 283 283 284 283 284 285 285 285 285 285 285 285 284 283 282 281 281 281 280 280 280 279 279 279 279 279 280 280 280 282 284
284 285 280 264 271 275 281 278 282 279 281 279 282 282 282 282 280 284 286 285 285 285 285 285 285 284 283 282 281 280 279 280 280 280 279 278 278 278 279 279 279 279 279 280
279 283 283 280 274 276 279 280 282 280 286 283 283 285 284 281 285 286 286 285 285 285 285 284 285 284 283 282 281 280 280 279 279 279 279 278 278 277 278 278 278 279 280 280
279 278 275 276 277 278 280 281 283 284 286 285 284 285 285 285 285 285 285 285 284 284 284 285 284 284 283 281 280 279 279 279 279 278 277 277 278 278 277 277 277 278 278 279
280 281 279 278 280 281 282 283 285 284 283 284 284 284 284 283 284 284 284 284 284 284 284 284 285 284 282 280 279 279 278 277 278 278 277 276 276 276 277 277 276 277 277 278
278 282 279 278 280 280 282 284 284 284 284 285 284 284 284 284 284 284 283 283 283 283 284 284 284 282 281 279 278 278 277 276 276 276 275 275 275 275 275 275 275 275 274 274
282 279 281 283 284 285 285 285 286 285 285 285 285 285 284 284 284 283 282 282 283 283 283 282 281 280 279 279 278 276 275 275 274 274 274 274 273 273 273 273 273 273 272 271
283 285 284 285 286 286 286 286 286 285 285 285 285 284 284 284 283 282 282 282 282 282 281 281 280 280 279 278 276 275 273 273 273 272 272 271 271 271 271 271 271 271 271 270
Wind_Speed
14 12 10 5 6 4 3 4 10 9 4 14 7 12 8 18 23 24 26 28 40 39 34 39 34 32 34 32 31 28 28 24 26 26 25 26 30 32 37 41 43 48 49 51
6 10 4 2 3 3 2 5 5 12 9 10 5 10 2 11 15 17 22 28 30 44 52 47 43 35 33 34 33 31 29 26 25 24 24 27 28 33 37 41 42 48 50 51
7 4 5 4 2 11 3 1 5 9 14 4 5 2 5 7 17 25 28 25 28 30 40 49 48 44 37 34 33 35 31 30 28 26 27 28 33 32 36 37 41 44 48 51
6 3 3 3 3 8 3 3 12 15 7 3 4 4 4 6 10 18 27 30 29 34 41 43 46 45 42 38 33 30 30 29 28 26 25 26 29 36 32 39 41 43 45 47
2 2 3 3 5 8 7 14 12 9 3 1 3 1 3 4 12 18 24 27 29 29 34 39 42 42 41 38 37 31 27 26 26 27 25 26 28 33 40 33 40 44 42 44
3 1 1 2 8 3 14 5 1 2 2 3 4 4 3 4 7 15 21 25 27 32 36 38 39 40 42 42 39 35 29 26 25 24 23 22 24 28 34 34 41 43 44 43
3 1 3 4 4 4 12 4 4 5 5 4 1 3 7 2 4 9 13 23 27 32 35 37 39 42 43 44 43 40 35 30 27 25 22 20 19 20 25 35 37 43 44 43
3 3 3 5 3 3 6 4 4 3 4 6 8 5 5 5 1 8 10 16 27 30 34 34 34 36 39 41 43 42 38 33 30 27 23 20 16 15 17 30 32 43 42 40
3 3 2 1 1 3 3 4 3 4 2 2 5 6 4 2 4 13 19 23 26 29 31 32 32 33 34 36 39 41 41 34 30 27 24 22 18 14 11 14 29 29 36 35
2 3 2 0 1 3 5 3 2 3 3 6 6 6 7 3 6 8 12 16 25 27 29 31 31 31 31 33 34 36 38 39 34 29 26 26 21 17 13 6 14 21 29 34
3 3 2 4 4 6 1 2 3 3 3 3 5 8 7 6 3 5 10 16 20 24 25 27 27 29 28 30 32 33 35 38 39 35 30 27 24 21 17 13 5 4 14 16
4 4 4 7 1 4 3 6 5 4 4 4 2 9 6 6 6 8 13 19 19 21 22 23 24 26 27 27 29 33 34 35 36 38 36 33 27 24 22 19 14 7 1 7
4 1 4 3 4 4 3 5 4 2 3 7 5 7 4 7 6 20 16 19 21 20 21 22 22 23 24 26 27 29 32 34 35 35 37 36 36 31 27 24 20 13 5 1
7 3 7 6 4 4 2 4 11 6 3 4 15 17 22 16 16 14 20 22 22 22 18 19 21 22 22 22 24 27 29 32 34 35 35 36 38 37 34 28 25 20 13 5
5 5 4 12 14 13 17 13 13 17 21 9 22 10 22 11 9 22 24 23 21 22 21 18 19 20 21 21 21 21 22 25 29 34 35 35 34 35 34 34 30 25 21 17
1 3 2 6 8 13 17 18 20 25 27 26 31 30 30 39 32 23 25 24 20 21 23 21 20 18 18 19 20 21 21 22 23 25 29 33 35 34 33 34 34 30 27 24
6 3 3 6 6 9 9 11 11 8 5 16 16 20 13 13 13 18 20 20 20 22 24 23 20 20 18 17 18 20 20 21 22 23 23 25 27 30 35 34 32 32 31 27
6 5 2 5 5 2 6 4 7 15 8 17 9 12 9 19 28 22 22 25 23 22 23 23 21 20 18 16 16 18 20 21 22 22 22 23 23 23 25 27 32 32 29 29
17 4 1 2 3 10 8 0 5 7 8 15 21 18 23 23 15 26 26 20 19 18 21 24 24 20 19 17 15 15 18 20 21 22 22 23 23 23 22 22 23 24 26 28
6 10 6 3 3 6 5 3 4 4 7 7 15 11 12 5 1 7 24 16 16 25 27 29 24 22 20 18 18 17 16 18 21 22 23 24 23 23 22 21 21 21 20 19
4 7 16 11 5 10 15 8 4 5 7 5 16 16 12 5 14 29 25 20 28 30 24 23 26 25 21 20 19 20 21 21 21 21 24 26 27 26 24 22 21 20 19 19
9 10 5 4 3 12 16 8 7 8 5 6 10 14 13 23 28 30 31 29 31 28 27 23 26 26 23 21 20 21 23 25 25 24 24 25 28 30 30 27 25 22 21 19
3 8 6 13 10 7 19 10 17 18 14 22 26 26 34 30 27 27 29 32 31 30 26 23 21 23 23 22 21 23 24 25 27 30 30 30 29 28 30 33 29 26 22 21
5 11 4 2 10 26 33 38 38 42 40 39 37 36 28 25 29 32 37 35 31 26 27 24 21 22 22 21 22 24 26 28 29 31 34 34 33 31 28 28 29 28 24 20
7 8 8 14 18 36 33 37 45 41 34 33 29 35 26 29 34 28 29 27 25 25 25 20 18 18 20 22 23 25 27 30 33 34 33 33 32 30 28 25 24 25 24 20
14 19 12 15 27 27 30 31 33 32 37 39 39 33 33 32 31 28 27 23 20 17 16 15 17 19 22 24 25 28 30 31 32 32 30 28 27 27 25 24 23 19 20 20
Wind_Direction
34 60 41 355 82 156 219 262 291 286 325 357 7 310 41 22 32 10 9 7 3 359 355 356 351 339 331 329 325 320 311 301 294 285 276 262 265 258 251 245 239 238 238 239
61 60 317 318 49 343 264 301 308 303 335 331 342 304 291 38 30 21 7 4 3 1 2 359 353 350 341 333 330 326 322 315 308 296 279 257 251 260 260 253 245 242 242 241
85 162 309 36 27 0 303 231 310 291 326 333 327 298 332 7 22 9 10 5 1 0 357 359 356 353 348 341 334 332 329 322 315 304 287 272 251 248 253 248 243 244 244 243
78 353 344 1 37 359 306 167 311 301 328 322 62 289 295 325 350 4 356 355 354 355 360 3 359 356 355 347 341 333 329 325 318 312 299 288 274 243 243 248 246 242 242 246
235 17 340 40 349 332 258 317 288 288 212 329 12 2 268 325 348 348 344 345 349 353 355 0 3 360 0 355 347 344 335 331 321 312 308 299 286 261 238 247 243 243 242 243
83 300 302 278 314 281 306 327 356 116 111 36 164 51 284 13 319 329 336 346 347 350 355 1 4 6 4 3 356 350 347 340 334 324 314 307 296 280 249 239 241 241 242 239
336 139 327 358 335 329 346 12 358 357 9 247 24 351 250 233 289 308 328 339 345 351 354 356 359 4 6 7 3 358 353 350 347 342 332 324 314 296 262 235 243 241 238 235
50 339 17 349 119 222 3 56 117 259 313 301 321 225 257 188 344 341 340 347 352 351 356 356 358 358 5 7 9 4 359 355 355 355 347 333 326 321 269 244 246 243 241 236
64 274 328 220 59 113 310 52 190 90 10 315 274 290 297 190 333 356 357 350 350 352 353 354 357 360 0 6 11 11 6 4 2 2 1 351 346 345 328 265 239 238 247 242
174 351 196 58 118 48 112 188 116 39 28 299 279 279 246 290 337 332 337 334 346 351 350 353 357 359 2 4 9 12 14 12 10 7 11 10 359 359 359 327 244 220 226 232
125 105 285 27 202 176 94 110 61 119 148 205 303 264 221 197 220 281 299 335 339 347 348 350 354 0 5 6 8 13 14 16 16 15 11 17 13 10 14 14 356 237 218 218
197 143 264 227 299 354 154 188 145 130 231 223 217 265 238 204 193 230 326 328 332 339 343 346 350 358 4 9 11 15 17 18 20 21 20 19 24 19 19 23 18 21 297 212
197 288 335 358 3 4 184 198 177 116 117 212 156 258 226 208 282 335 307 317 322 326 335 339 344 352 356 359 7 12 16 19 19 21 23 23 27 27 24 22 24 26 32 263
159 175 197 207 197 128 207 217 198 155 168 213 226 269 272 261 286 288 292 305 311 313 318 325 332 338 342 351 355 3 10 11 15 19 22 25 27 29 29 27 28 31 25 14
154 231 203 257 273 264 257 237 213 218 227 213 266 249 266 273 276 285 285 287 298 309 310 309 317 327 333 338 346 352 2 7 10 10 15 19 24 27 30 31 31 33 36 36
102 267 122 279 260 259 262 256 232 234 244 245 257 273 273 277 276 265 259 270 286 301 305 302 304 311 320 327 336 345 349 356 3 8 11 12 11 19 24 29 29 31 36 40
160 158 47 265 342 307 285 244 201 191 216 220 231 241 267 273 259 246 256 271 283 295 300 296 296 304 309 317 324 333 340 345 352 359 7 9 12 12 11 14 23 27 30 31
153 126 128 274 353 298 255 215 184 206 228 214 252 253 245 262 275 278 267 278 280 297 296 294 290 295 299 304 311 321 328 334 339 348 354 0 6 10 12 11 6 12 20 25
200 148 299 241 215 303 278 116 153 168 261 239 230 252 258 272 289 287 287 261 282 303 304 296 283 288 293 299 303 309 318 324 331 335 342 349 354 358 4 6 6 6 5 7
202 197 174 92 215 238 248 250 188 141 288 221 197 229 244 162 305 274 301 265 290 307 298 291 280 284 285 293 301 306 313 318 319 326 332 337 341 345 348 353 355 354 356 0
146 201 217 220 258 280 251 224 159 86 262 184 198 222 232 189 265 297 294 270 297 306 300 291 272 278 278 284 292 301 309 313 316 318 320 324 329 332 334 336 337 338 340 343
169 170 195 173 177 274 200 132 195 223 296 254 251 261 288 298 296 295 294 288 300 303 299 292 273 272 272 278 287 296 302 308 310 312 316 317 319 323 325 326 325 326 326 325
251 196 190 187 207 248 193 214 234 262 269 279 281 279 298 297 295 300 299 297 299 303 298 297 281 266 266 274 283 293 300 303 307 310 312 315 317 316 315 317 319 319 319 315
256 220 238 108 226 245 253 259 265 273 276 289 289 288 294 290 301 301 304 304 304 296 295 292 277 264 266 274 285 293 297 301 304 307 310 312 313 314 313 311 311 314 315 312
194 149 238 257 271 275 269 265 268 275 281 285 279 294 279 299 302 302 300 300 299 296 292 286 271 266 270 280 288 293 297 300 303 306 309 310 312 314 314 313 312 311 313 312
197 238 238 255 256 261 277 281 280 277 280 282 284 281 280 292 295 298 293 295 295 292 287 279 274 276 281 287 293 296 299 301 304 306 309 311 312 314 317 317 313 311 310 308